Regional Weather Roundup
Issued by NWS

Home | Current Version | Previous Version | Graphics & Text | Print | Product List | Glossary On
Versions: 1 2 3 4 5 6 7 8 9 10 11 12 13 14 15 16 17 18 19 20 21 22 23 24 25 26 27 28 29 30 31 32 33 34 35 36 37 38 39 40 41 42 43 44 45 46 47 48 49 50
026
ASUS45 KSLC 271510
RWRUT

UTAH REGIONAL WEATHER ROUNDUP
NATIONAL WEATHER SERVICE SALT LAKE CITY UT
900 AM MDT MON MAR 27 2017

UTZ001>011-023>025-271600-

NORTHERN UTAH

CITY           SKY/WX    TMP DP  RH WIND       PRES   REMARKS
BRIGHAM CITY     N/A     44  37  75 W5        29.88S
DUGWAY         LGT RAIN  43  39  85 NW17G23   29.88R
HILL AFB       LGT RAIN  45  37  76 SE9       29.88S
LOGAN          CLOUDY    43  37  79 W5        29.88S
OGDEN          LGT RAIN  45  36  70 SE10      29.87S
SALT LAKE CITY CLOUDY    47  38  71 S8        29.88S
WENDOVER       LGT RAIN  45  36  70 NW8       29.90R
HEBER CITY     CLOUDY    39  34  81 CALM      29.90F

$$

UTZ011>015-024>027-271600-

CENTRAL/NORTHEAST UTAH

CITY           SKY/WX    TMP DP  RH WIND       PRES   REMARKS
PROVO AIRPORT  RAIN      43  40  89 E5        29.89F
MOAB/CANYONLAN CLOUDY    49  28  44 SE5       29.88R
DELTA          CLOUDY    45  34  65 S7        29.87R
PRICE          PTSUNNY   42  33  70 CALM      29.90S
ROOSEVELT      CLOUDY    43  34  70 CALM      29.97R
VERNAL         CLOUDY    44  32  62 NW9       29.93S

$$

UTZ013>016-019>022-027-271600-

SOUTHERN UTAH

CITY           SKY/WX    TMP DP  RH WIND       PRES   REMARKS
BRYCE CANYON   FLURRIES  37  28  70 SE9       29.95S WCI  30
CEDAR CITY     LGT RAIN  40  34  79 NE12      29.88R WCI  33
MILFORD        LGT RAIN  43  38  82 S7        29.90R
ST GEORGE      PTSUNNY   52  35  52 SE3       29.84F
HANKSVILLE     CLOUDY    46  32  57 CALM      29.91R
BLANDING       CLOUDY    43  28  54 SE5       30.04R

$$

REGIONAL REPORTS     COLORADO/ARIZONA

CITY           SKY/WX    TMP DP  RH WIND       PRES   REMARKS
CRAIG, CO      CLOUDY    39  29  67 N6        29.95F WCI  35
GRAND JUNCTION CLOUDY    48  29  47 SE15      29.91R
RIFLE, CO      CLOUDY    41  31  67 CALM      29.94S
MONTROSE, CO   MOSUNNY   45  28  51 SE12      29.96F
CORTEZ, CO     CLOUDY    39  31  72 CALM      29.98S
COLORADO CITY  CLOUDY    50  34  53 SE6       29.92S
PAGE, AZ       MOSUNNY   53  33  46 S5        29.89S
GRAND CANYON   CLOUDY    42  29  59 S9        29.98S
KINGMAN, AZ    SUNNY     58  26  29 S12       29.89S
FLAGSTAFF, AZ  CLOUDY    42  28  57 SW9       30.01S

$$

REGIONAL REPORTS    NEVADA/IDAHO/WYOMING

CITY           SKY/WX    TMP DP  RH WIND       PRES   REMARKS
LAS VEGAS, NV  MOSUNNY   60  33  36 SW7       29.80R
ELY, NY        CLOUDY    36  34  92 NW5       29.91F WCI  32
ELKO, NV       FLURRIES  34  32  92 S6        29.96S WCI  29
POCATELLO, ID  CLOUDY    41  37  86 SW18      29.91R
BURLEY, ID     LGT RAIN  40  35  83 SW12G25   29.91S WCI  33
EVANSTON, WY   CLOUDY    35  28  75 S7        29.91F WCI  29
ROCK SPRINGS,  SUNNY     41  27  57 SE5       29.93S
KEMMERER, WY     N/A     32  27  80 CALM      29.93S

$$




USA.gov is the U.S. government's official web portal to all federal, state and local government web resources and services.